Regional Weather Roundup
Issued by NWS Tiyan, Guam

Home | Current Version | Previous Version | Text Only | Print | Product List | Glossary On
Versions: 1 2 3 4 5 6 7 8 9 10 11 12 13 14 15 16 17 18 19 20 21 22 23 24 25 26 27 28 29 30 31 32 33 34 35 36 37 38 39 40 41 42 43 44 45 46 47 48 49
000
ASGM40 PGUM 252212
RWRGUM
WEATHER ROUNDUP FOR THE MARIANAS
NATIONAL WEATHER SERVICE TIYAN GU
800 AM CHST WED APR 26 2017

GUZ001>004-252300-
MARIANA ISLANDS-

CITY           SKY/WX    TMP DP  RH WIND       PRES   REMARKS
GUAM AIRPORT   PTSUNNY   77  75  94 E7        29.95R
ANDERSEN AFB   CLOUDY    75  73  94 E8        29.96R
ROTA AIRPORT   CLOUDY    75  73  94 E3        29.94R
TINIAN AP      PTSUNNY   77  75  94 E3        29.93R
SAIPAN AP      CLOUDY    81  75  83 E14       29.94R

$$




USA.gov is the U.S. government's official web portal to all federal, state and local government web resources and services.